[ hide orbit diagram ]
For accurate long-term ephemerides, please instead use our Horizons system.This orbit viewer was implemented using two-body methods, and hence should not be used for determining accurate long-term trajectories (over several years or decades) or planetary encounter circumstances.
Orbital Elements at Epoch 2459200.5 (2020-Dec-17.0) TDB
Reference: JPL 117 (heliocentric ecliptic J2000)
Element | Value | Uncertainty (1-sigma) | Units |
e | .1553287130435127 | 2.1904e-08 | |
a | 3.39722391929651 | 1.3613e-08 | au |
q | 2.869537499991545 | 6.9917e-08 | au |
i | 10.34421542184681 | 8.8368e-07 | deg |
node | 217.4846060141835 | 5.7026e-06 | deg |
peri | 138.1970727731872 | 7.6217e-06 | deg |
M | 24.39256959211961 | 4.8534e-06 | deg |
tp | 2459045.532816945152 (2020-Jul-15.03281695) | 3.0424e-05 | TDB |
period | 2287.097539644548 6.26 | 1.3747e-05 3.764e-08 | d yr |
n | .1574047428060063 | 9.461e-10 | deg/d |
Q | 3.924910338601476 | 1.5727e-08 | au |
|
| | Orbit Determination Parameters
Additional Information
|
[ show covariance matrix ]
Physical Parameter Table
Parameter |
Symbol |
Value |
Units |
Sigma |
Reference |
Notes |
absolute magnitude |
H |
8.97 |
|
n/a |
E2021B10 |
IRAS observations used: 6 |
diameter |
diameter |
97.968 |
km |
0.876 |
urn:nasa:pds:neowise_diameters_albedos::2.0[mainbelt] (http://adsabs.harvard.edu/abs/2014ApJ...791..121M) |
|
rotation period |
rot_per |
9.9143 |
h |
n/a |
LCDB (Rev. 2020-October); Warner et al., 2009 |
Published Reference List: [Koff, R.A.; Brincat, S.M. (2001) Minor Planet Bull. 28, 23.] [Behrend, R. (2007) Observatoire de Geneve web site, http://obswww.unige.ch/~behrend/page_cou.html] [Behrend, R. (2011) Observatoire de Geneve web site, http://obswww.unige.ch/~behrend/page_cou.html] |
geometric albedo |
albedo |
0.048 |
|
0.005 |
urn:nasa:pds:neowise_diameters_albedos::2.0[mainbelt] (http://adsabs.harvard.edu/abs/2014ApJ...791..121M) |
|
B-V |
BV |
0.663 |
|
0.020 |
EAR-A-5-DDR-UBV-MEAN-VALUES-V1.2 |
#obs=1; phase=5.10 deg. |
U-B |
UB |
0.281 |
|
0.026 |
EAR-A-5-DDR-UBV-MEAN-VALUES-V1.2 |
#obs=1; phase=5.10 deg. |
Tholen spectral type |
spec_T |
C |
|
n/a |
EAR-A-5-DDR-TAXONOMY-V4.0 |
used 7 color indices; used ground-based radiometric albedo |
SMASSII spectral type |
spec_B |
C |
|
n/a |
EAR-A-5-DDR-TAXONOMY-V4.0 |
based on a high-resolution spectrum by Xu et al. (1995) or Bus and Binzel (2002) |
|
713 Luscinia (A911 HG) Discovered 1911-Apr-18 by Helffrich, J. at Heidelberg |
Reference: DISCOVERY.DB | Last Updated: 2003-08-29 |
|
[ show close-approach data ]
Alternate Designations
A911 HG = 1936 FM1 = 1951 NA = 1955 FN1 = A909 BA |
|
|